Location: Theodore Roosevelt National Park
(46.9990°N, 103.4631°W)
Time: 17:55:16
(UTC-06:00)

Iridium 37 - Visible Passes

Search period start: 24 April 2014 00:00
Search period end: 04 May 2014 00:00
Orbit: 776 x 779 km, 86.4° (Epoch: 24 April)

Date Brightness Start Highest point End Pass type
(mag) Time Alt. Az. Time Alt. Az. Time Alt. Az.
24 Apr 7.9 02:20:11 10° NNE 02:23:47 19° ENE 02:27:23 10° ESE visible
24 Apr 5.5 03:59:51 10° N 04:05:00 63° W 04:08:48 18° SSW visible
25 Apr 8.3 01:48:41 10° NE 01:49:48 11° ENE 01:50:54 10° ENE visible
25 Apr 5.6 03:26:16 10° N 03:31:30 75° E 03:35:03 21° S visible
25 Apr 7.2 05:08:35 10° NW 05:11:32 15° WNW 05:14:29 10° WSW visible
26 Apr 6.5 02:52:54 10° N 02:57:52 43° E 03:01:19 19° SE visible
26 Apr 6.6 04:34:04 10° NNW 04:38:21 26° W 04:41:46 14° SW visible
27 Apr 7.4 02:19:48 10° NNE 02:24:06 25° ENE 02:27:37 13° SE visible
27 Apr 5.9 04:00:05 10° NNW 04:05:02 45° W 04:08:04 22° SSW visible
28 Apr 8.0 01:47:14 10° NE 01:50:11 15° ENE 01:53:08 10° ESE visible
28 Apr 5.4 03:26:22 10° N 03:31:35 79° W 03:34:23 28° S visible
29 Apr 5.9 02:52:51 10° N 02:58:02 60° E 03:00:43 28° SSE visible
29 Apr 7.0 04:34:39 10° NW 04:38:15 19° WNW 04:41:10 12° WSW visible
30 Apr 6.8 02:19:35 10° NNE 02:24:20 35° ENE 02:27:04 21° SE visible
30 Apr 6.4 04:00:24 10° NNW 04:05:00 32° W 04:07:31 21° SW visible
01 May 7.6 01:46:38 10° NNE 01:50:31 21° ENE 01:53:26 14° ESE visible
01 May 5.7 03:26:32 10° NNW 03:31:38 56° W 03:33:53 32° SSW visible
02 May 8.1 01:14:33 10° NE 01:16:33 12° ENE 01:18:32 10° E visible
02 May 5.5 02:52:54 10° N 02:58:08 84° E 03:00:16 37° S visible
02 May 7.4 04:35:34 10° NW 04:38:06 14° WNW 04:40:37 10° WSW visible
03 May 6.3 02:19:28 10° N 02:24:32 48° E 02:26:39 31° SE visible
03 May 6.8 04:00:51 10° NNW 04:04:55 24° W 04:07:07 18° WSW visible
